OCN29K EDDM-DTTJ

Flight info

Callsign OCN29K
Flight time 2h 17m
Altitude 39000
Route TURBU Y107 TOBSO DCT BAKOR DCT ROKIB DCT VIC DCT KOPER DCT LUMAV DCT AMTEL DCT PININ DCT TUNEX UG737 CBN UG727 SFX A411 BISKO
Aircraft A320/M-SDE2E3FGIJ1LORWXYZ/HB1

Departure

Time 2026-05-05 16:50
Airport Munich Airport (EDDM)

Arrival

Time 2026-05-05 19:07
Airport Djerba Zarzis International Airport (DTTJ)
Time Latitude Longitude Altitude Speed Heading
2026-05-05 16:23 48.35253 11.80535 1486 ft 0 kts 353°
2026-05-05 16:41 48.35252 11.80535 1513 ft 1 kts 353°
2026-05-05 16:41 48.35235 11.80538 1476 ft 3 kts 353°
2026-05-05 16:42 48.35215 11.80541 1479 ft 3 kts 353°
2026-05-05 16:42 48.35195 11.80545 1473 ft 3 kts 353°
2026-05-05 16:42 48.35175 11.80548 1474 ft 3 kts 353°
2026-05-05 16:42 48.35157 11.80551 1474 ft 3 kts 336°
2026-05-05 16:43 48.35146 11.80565 1483 ft 3 kts 278°
2026-05-05 16:43 48.35146 11.80589 1475 ft 1 kts 263°
2026-05-05 16:43 48.35147 11.80609 1485 ft 2 kts 263°
2026-05-05 16:43 48.35148 11.80617 1478 ft 0 kts 263°
2026-05-05 16:46 48.35147 11.80607 1485 ft 4 kts 263°
2026-05-05 16:46 48.35141 11.80533 1473 ft 10 kts 263°
2026-05-05 16:46 48.35130 11.80390 1482 ft 17 kts 263°
2026-05-05 16:46 48.35110 11.80204 1481 ft 18 kts 263°
2026-05-05 16:47 48.35096 11.80019 1479 ft 18 kts 263°
2026-05-05 16:47 48.35081 11.79826 1474 ft 19 kts 263°
2026-05-05 16:47 48.35026 11.79668 1485 ft 18 kts 188°
2026-05-05 16:47 48.34897 11.79687 1482 ft 19 kts 173°
2026-05-05 16:48 48.34809 11.79786 1482 ft 18 kts 89°
2026-05-05 16:48 48.34824 11.79980 1485 ft 20 kts 83°
2026-05-05 16:48 48.34803 11.80177 1474 ft 20 kts 128°
2026-05-05 16:48 48.34680 11.80252 1475 ft 20 kts 173°
2026-05-05 16:49 48.34534 11.80277 1479 ft 22 kts 174°
2026-05-05 16:49 48.34455 11.80124 1485 ft 22 kts 263°
2026-05-05 16:49 48.34428 11.79773 1485 ft 63 kts 263°
2026-05-05 16:49 48.34351 11.78770 1486 ft 127 kts 263°
2026-05-05 16:50 48.34229 11.77192 1509 ft 173 kts 263°
2026-05-05 16:50 48.34107 11.75391 2253 ft 169 kts 264°
2026-05-05 16:50 48.33967 11.73629 3007 ft 174 kts 262°
2026-05-05 16:50 48.33389 11.71899 3347 ft 204 kts 230°
2026-05-05 16:51 48.32049 11.70878 3790 ft 232 kts 190°
2026-05-05 16:51 48.30426 11.70789 4697 ft 233 kts 183°
2026-05-05 16:51 48.28814 11.71076 5580 ft 237 kts 165°
2026-05-05 16:51 48.27265 11.72216 6054 ft 262 kts 147°
2026-05-05 16:52 48.25716 11.73816 6677 ft 275 kts 147°
2026-05-05 16:52 48.24123 11.75453 7554 ft 279 kts 149°
2026-05-05 16:52 48.22513 11.77102 8480 ft 282 kts 149°
2026-05-05 16:52 48.20879 11.78768 9394 ft 285 kts 149°
2026-05-05 16:53 48.19224 11.80446 10242 ft 289 kts 149°
2026-05-05 16:53 48.17466 11.81913 11043 ft 290 kts 161°
2026-05-05 16:53 48.15509 11.82932 11463 ft 309 kts 165°
2026-05-05 16:53 48.13404 11.83971 11906 ft 325 kts 165°
2026-05-05 16:54 48.11233 11.85040 12623 ft 331 kts 164°
2026-05-05 16:54 48.09031 11.86129 13383 ft 336 kts 164°
2026-05-05 16:54 48.06800 11.87235 14084 ft 339 kts 164°
2026-05-05 16:54 48.04550 11.88352 14791 ft 342 kts 164°
2026-05-05 16:55 48.02280 11.89482 15484 ft 345 kts 164°
2026-05-05 16:55 47.99989 11.90620 16159 ft 349 kts 164°
2026-05-05 16:55 47.97678 11.91765 16865 ft 351 kts 164°
2026-05-05 16:55 47.95350 11.92917 17566 ft 354 kts 164°
2026-05-05 16:56 47.93003 11.94068 18216 ft 356 kts 166°
2026-05-05 16:56 47.90575 11.94772 18775 ft 356 kts 177°
2026-05-05 16:56 47.88127 11.94820 19356 ft 358 kts 182°
2026-05-05 16:56 47.85634 11.94754 19965 ft 360 kts 182°
2026-05-05 16:57 47.83127 11.94696 20562 ft 362 kts 182°
2026-05-05 16:57 47.80601 11.94646 21149 ft 364 kts 182°
2026-05-05 16:57 47.78060 11.94605 21707 ft 366 kts 182°
2026-05-05 16:57 47.75504 11.94564 22259 ft 369 kts 182°
2026-05-05 16:58 47.72926 11.94521 22811 ft 372 kts 182°
2026-05-05 16:58 47.70334 11.94475 23360 ft 374 kts 182°
2026-05-05 16:58 47.67725 11.94427 23815 ft 376 kts 183°
2026-05-05 16:58 47.65105 11.94377 24247 ft 378 kts 183°
2026-05-05 16:59 47.62462 11.94327 24685 ft 381 kts 183°
2026-05-05 16:59 47.59810 11.94282 25095 ft 383 kts 183°
2026-05-05 16:59 47.57137 11.94241 25503 ft 385 kts 183°
2026-05-05 16:59 47.54447 11.94198 25927 ft 388 kts 183°
2026-05-05 17:00 47.51740 11.94151 26352 ft 390 kts 184°
2026-05-05 17:00 47.49019 11.94100 26781 ft 392 kts 184°
2026-05-05 17:00 47.46283 11.94052 27189 ft 395 kts 184°
2026-05-05 17:00 47.43532 11.93991 27600 ft 396 kts 186°
2026-05-05 17:01 47.40794 11.93553 28040 ft 397 kts 190°
2026-05-05 17:01 47.38048 11.93003 28409 ft 399 kts 191°
2026-05-05 17:01 47.35285 11.92444 28747 ft 402 kts 191°
2026-05-05 17:01 47.32504 11.91885 29138 ft 405 kts 191°
2026-05-05 17:02 47.29709 11.91328 29522 ft 407 kts 191°
2026-05-05 17:02 47.26895 11.90764 29904 ft 409 kts 191°
2026-05-05 17:02 47.24065 11.90195 30254 ft 411 kts 191°
2026-05-05 17:02 47.21223 11.89629 30559 ft 413 kts 191°
2026-05-05 17:03 47.18363 11.89063 30844 ft 416 kts 191°
2026-05-05 17:03 47.15491 11.88493 31150 ft 417 kts 191°
2026-05-05 17:03 47.12607 11.87921 31439 ft 419 kts 191°
2026-05-05 17:03 47.09716 11.87350 31820 ft 419 kts 191°
2026-05-05 17:04 47.06830 11.86781 32194 ft 419 kts 191°
2026-05-05 17:04 47.03950 11.86217 32676 ft 417 kts 191°
2026-05-05 17:04 47.01115 11.85643 33143 ft 414 kts 192°
2026-05-05 17:04 46.98285 11.84908 33550 ft 413 kts 194°
2026-05-05 17:05 46.95477 11.84030 33914 ft 412 kts 196°
2026-05-05 17:05 46.92678 11.83072 34286 ft 411 kts 196°
2026-05-05 17:05 46.89897 11.82103 34617 ft 411 kts 196°
2026-05-05 17:05 46.87115 11.81153 34935 ft 411 kts 196°
2026-05-05 17:06 46.84328 11.80232 35245 ft 411 kts 195°
2026-05-05 17:06 46.81538 11.79339 35557 ft 410 kts 195°
2026-05-05 17:06 46.78749 11.78463 35845 ft 410 kts 195°
2026-05-05 17:06 46.75965 11.77596 36102 ft 410 kts 195°
2026-05-05 17:07 46.73175 11.76726 36344 ft 410 kts 195°
2026-05-05 17:07 46.70386 11.75854 36505 ft 410 kts 195°
2026-05-05 17:07 46.67594 11.74978 36744 ft 411 kts 195°
2026-05-05 17:07 46.64804 11.74101 37019 ft 410 kts 195°
2026-05-05 17:08 46.62016 11.73226 37290 ft 410 kts 194°
2026-05-05 17:08 46.59172 11.72745 37510 ft 414 kts 186°
2026-05-05 17:08 46.56296 11.72586 37734 ft 414 kts 186°
2026-05-05 17:08 46.53421 11.72437 37990 ft 413 kts 186°
2026-05-05 17:09 46.50550 11.72291 38243 ft 413 kts 186°
2026-05-05 17:09 46.47679 11.72142 38477 ft 413 kts 186°
2026-05-05 17:09 46.44809 11.71990 38690 ft 412 kts 186°
2026-05-05 17:09 46.41940 11.71836 38860 ft 412 kts 186°
2026-05-05 17:10 46.36191 11.71522 38981 ft 414 kts 186°
2026-05-05 17:10 46.30445 11.71200 38997 ft 414 kts 186°
2026-05-05 17:11 46.24675 11.70887 38990 ft 414 kts 186°
2026-05-05 17:11 46.18948 11.70575 39007 ft 414 kts 186°
2026-05-05 17:12 46.13179 11.70262 39006 ft 414 kts 186°
2026-05-05 17:12 46.07406 11.69955 39018 ft 415 kts 186°
2026-05-05 17:13 46.01627 11.69651 39025 ft 415 kts 186°
2026-05-05 17:13 45.95845 11.69344 39026 ft 416 kts 186°
2026-05-05 17:14 45.90060 11.69033 39027 ft 416 kts 186°
2026-05-05 17:14 45.84273 11.68721 39033 ft 416 kts 186°
2026-05-05 17:15 45.78480 11.68407 39030 ft 416 kts 186°
2026-05-05 17:15 45.72730 11.68106 39018 ft 416 kts 186°
2026-05-05 17:16 45.66938 11.67803 39020 ft 417 kts 186°
2026-05-05 17:16 45.61142 11.67477 39019 ft 416 kts 187°
2026-05-05 17:17 45.55352 11.67048 39007 ft 416 kts 187°
2026-05-05 17:17 45.49566 11.66598 39003 ft 416 kts 187°
2026-05-05 17:18 45.43782 11.66183 39010 ft 416 kts 187°
2026-05-05 17:18 45.37993 11.65772 39015 ft 417 kts 187°
2026-05-05 17:19 45.32199 11.65351 39013 ft 417 kts 187°
2026-05-05 17:19 45.26391 11.64931 39002 ft 418 kts 187°
2026-05-05 17:20 45.20583 11.64510 39009 ft 418 kts 187°
2026-05-05 17:20 45.14796 11.64091 39000 ft 419 kts 187°
2026-05-05 17:21 45.08954 11.63660 39013 ft 420 kts 187°
2026-05-05 17:22 45.01169 11.63076 39021 ft 420 kts 187°
2026-05-05 17:22 44.95323 11.62651 39023 ft 420 kts 188°
2026-05-05 17:23 44.89482 11.62230 39039 ft 420 kts 188°
2026-05-05 17:23 44.83653 11.61807 39037 ft 419 kts 188°
2026-05-05 17:24 44.77815 11.61485 39013 ft 420 kts 186°
2026-05-05 17:24 44.71955 11.61488 39009 ft 421 kts 185°
2026-05-05 17:25 44.66107 11.61550 39005 ft 420 kts 185°
2026-05-05 17:25 44.60253 11.61552 39002 ft 420 kts 186°
2026-05-05 17:26 44.54411 11.61514 38990 ft 420 kts 186°
2026-05-05 17:26 44.48570 11.61470 38991 ft 420 kts 186°
2026-05-05 17:27 44.42719 11.61433 38994 ft 420 kts 186°
2026-05-05 17:27 44.36897 11.61417 38995 ft 421 kts 186°
2026-05-05 17:28 44.31045 11.61391 39015 ft 420 kts 186°
2026-05-05 17:28 44.25194 11.61357 39029 ft 421 kts 186°
2026-05-05 17:29 44.19328 11.61328 39029 ft 421 kts 186°
2026-05-05 17:29 44.13470 11.61293 39030 ft 421 kts 186°
2026-05-05 17:30 44.07610 11.61266 39030 ft 421 kts 186°
2026-05-05 17:30 44.01755 11.61242 39010 ft 421 kts 187°
2026-05-05 17:31 43.95909 11.61216 39011 ft 420 kts 187°
2026-05-05 17:31 43.90059 11.61181 39019 ft 420 kts 187°
2026-05-05 17:32 43.84221 11.61150 39023 ft 420 kts 187°
2026-05-05 17:32 43.78384 11.61125 39012 ft 419 kts 187°
2026-05-05 17:33 43.72575 11.61096 39011 ft 420 kts 187°
2026-05-05 17:33 43.66732 11.61069 39024 ft 420 kts 187°
2026-05-05 17:34 43.60880 11.61045 39019 ft 420 kts 187°
2026-05-05 17:34 43.55034 11.61021 39024 ft 420 kts 187°
2026-05-05 17:35 43.49197 11.60987 39026 ft 420 kts 187°
2026-05-05 17:35 43.43345 11.60960 39017 ft 420 kts 187°
2026-05-05 17:36 43.37496 11.60932 39024 ft 420 kts 188°
2026-05-05 17:36 43.31648 11.60901 39030 ft 420 kts 188°
2026-05-05 17:37 43.25800 11.60875 39033 ft 420 kts 188°
2026-05-05 17:37 43.19953 11.60830 39024 ft 419 kts 188°
2026-05-05 17:38 43.14134 11.60591 39030 ft 418 kts 189°
2026-05-05 17:38 43.08322 11.60275 39030 ft 418 kts 189°
2026-05-05 17:39 43.02509 11.59984 39024 ft 418 kts 189°
2026-05-05 17:39 42.96694 11.59735 39039 ft 418 kts 189°
2026-05-05 17:40 42.90886 11.59499 39039 ft 417 kts 189°
2026-05-05 17:40 42.85082 11.59252 39046 ft 417 kts 189°
2026-05-05 17:41 42.79288 11.58997 39044 ft 416 kts 189°
2026-05-05 17:41 42.73502 11.58740 39045 ft 416 kts 189°
2026-05-05 17:42 42.67722 11.58495 39050 ft 415 kts 189°
2026-05-05 17:42 42.61954 11.58256 39039 ft 415 kts 189°
2026-05-05 17:43 42.56172 11.58005 39044 ft 415 kts 189°
2026-05-05 17:43 42.50395 11.57750 39045 ft 415 kts 189°
2026-05-05 17:44 42.44626 11.57495 39044 ft 415 kts 189°
2026-05-05 17:44 42.38858 11.57252 39023 ft 415 kts 189°
2026-05-05 17:45 42.33085 11.57010 39028 ft 415 kts 189°
2026-05-05 17:45 42.27351 11.56764 39034 ft 415 kts 189°
2026-05-05 17:46 42.21576 11.56524 39034 ft 415 kts 189°
2026-05-05 17:46 42.15803 11.56280 39033 ft 415 kts 189°
2026-05-05 17:47 42.10022 11.56031 39035 ft 415 kts 189°
2026-05-05 17:47 42.04242 11.55786 39036 ft 415 kts 189°
2026-05-05 17:48 41.98500 11.55540 39023 ft 415 kts 189°
2026-05-05 17:48 41.92718 11.55296 39024 ft 416 kts 189°
2026-05-05 17:49 41.86924 11.55059 39026 ft 416 kts 189°
2026-05-05 17:49 41.81125 11.54820 39009 ft 416 kts 189°
2026-05-05 17:50 41.75330 11.54577 39015 ft 417 kts 189°
2026-05-05 17:50 41.69526 11.54331 39021 ft 417 kts 189°
2026-05-05 17:51 41.63719 11.54081 39026 ft 417 kts 189°
2026-05-05 17:51 41.57911 11.53839 39017 ft 418 kts 189°
2026-05-05 17:52 41.52096 11.53601 39024 ft 418 kts 189°
2026-05-05 17:52 41.46269 11.53357 39026 ft 419 kts 189°
2026-05-05 17:53 41.40439 11.53120 39012 ft 419 kts 188°
2026-05-05 17:53 41.34610 11.52886 39015 ft 420 kts 188°
2026-05-05 17:54 41.28767 11.52637 39020 ft 420 kts 188°
2026-05-05 17:54 41.22915 11.52388 39029 ft 420 kts 188°
2026-05-05 17:55 41.17103 11.52149 39018 ft 421 kts 188°
2026-05-05 17:55 41.11250 11.51911 39035 ft 420 kts 188°
2026-05-05 17:56 41.05400 11.51675 39044 ft 420 kts 188°
2026-05-05 17:56 40.99557 11.51434 39049 ft 420 kts 188°
2026-05-05 17:57 40.93711 11.51195 39041 ft 419 kts 188°
2026-05-05 17:57 40.87899 11.50956 39050 ft 419 kts 188°
2026-05-05 17:58 40.82064 11.50719 39048 ft 419 kts 188°
2026-05-05 17:58 40.76229 11.50491 39033 ft 419 kts 187°
2026-05-05 17:59 40.70385 11.50256 39034 ft 420 kts 187°
2026-05-05 17:59 40.64534 11.50019 39035 ft 421 kts 187°
2026-05-05 18:00 40.58713 11.49780 39037 ft 421 kts 187°
2026-05-05 18:00 40.52851 11.49536 39030 ft 421 kts 187°
2026-05-05 18:01 40.46979 11.49293 39031 ft 422 kts 187°
2026-05-05 18:01 40.41095 11.49059 39035 ft 423 kts 187°
2026-05-05 18:02 40.35205 11.48830 39037 ft 423 kts 187°
2026-05-05 18:02 40.29311 11.48598 39030 ft 423 kts 187°
2026-05-05 18:03 40.23429 11.48366 39048 ft 423 kts 187°
2026-05-05 18:03 40.18547 11.48167 39053 ft 422 kts 187°
2026-05-05 18:04 40.12672 11.47930 39052 ft 422 kts 187°
2026-05-05 18:04 40.06806 11.47700 39054 ft 422 kts 187°
2026-05-05 18:05 40.00937 11.47465 39055 ft 422 kts 187°
2026-05-05 18:05 39.95069 11.47237 39055 ft 421 kts 187°
2026-05-05 18:06 39.89207 11.47007 39045 ft 421 kts 187°
2026-05-05 18:06 39.83354 11.46772 39053 ft 421 kts 187°
2026-05-05 18:07 39.77500 11.46532 39059 ft 420 kts 187°
2026-05-05 18:07 39.71649 11.46311 39058 ft 420 kts 186°
2026-05-05 18:08 39.65842 11.46089 39037 ft 420 kts 186°
2026-05-05 18:08 39.59998 11.45859 39043 ft 420 kts 186°
2026-05-05 18:09 39.54158 11.45628 39042 ft 420 kts 186°
2026-05-05 18:09 39.48322 11.45402 39044 ft 420 kts 186°
2026-05-05 18:10 39.42481 11.45170 39036 ft 420 kts 186°
2026-05-05 18:10 39.36641 11.44937 39039 ft 420 kts 186°
2026-05-05 18:11 39.30793 11.44706 39040 ft 420 kts 186°
2026-05-05 18:11 39.24946 11.44483 39042 ft 420 kts 186°
2026-05-05 18:12 39.19095 11.44256 39028 ft 420 kts 186°
2026-05-05 18:12 39.13240 11.44029 39032 ft 420 kts 186°
2026-05-05 18:13 39.07385 11.43798 39033 ft 421 kts 186°
2026-05-05 18:13 39.01569 11.43584 39017 ft 421 kts 186°
2026-05-05 18:14 38.95671 11.43350 39022 ft 421 kts 186°
2026-05-05 18:14 38.89814 11.43118 39028 ft 421 kts 186°
2026-05-05 18:15 38.83955 11.42891 39033 ft 421 kts 186°
2026-05-05 18:15 38.78090 11.42678 39017 ft 421 kts 186°
2026-05-05 18:16 38.72266 11.42458 39017 ft 422 kts 186°
2026-05-05 18:16 38.66383 11.42227 39020 ft 422 kts 186°
2026-05-05 18:17 38.60508 11.41993 39023 ft 422 kts 186°
2026-05-05 18:17 38.54637 11.41771 39009 ft 422 kts 186°
2026-05-05 18:18 38.48791 11.41548 39013 ft 423 kts 186°
2026-05-05 18:18 38.42910 11.41325 39017 ft 423 kts 186°
2026-05-05 18:19 38.37022 11.41110 39014 ft 423 kts 186°
2026-05-05 18:19 38.31130 11.40889 38996 ft 423 kts 186°
2026-05-05 18:20 38.25231 11.40665 39006 ft 424 kts 186°
2026-05-05 18:20 38.19332 11.40443 39011 ft 424 kts 186°
2026-05-05 18:21 38.13427 11.40219 39014 ft 424 kts 186°
2026-05-05 18:21 38.07524 11.39999 39003 ft 424 kts 186°
2026-05-05 18:22 38.01615 11.39768 39008 ft 424 kts 186°
2026-05-05 18:22 37.95713 11.39550 39013 ft 425 kts 186°
2026-05-05 18:23 37.89953 11.38553 39016 ft 418 kts 197°
2026-05-05 18:23 37.84292 11.36846 39017 ft 418 kts 197°
2026-05-05 18:24 37.78619 11.35153 39013 ft 418 kts 197°
2026-05-05 18:24 37.72945 11.33469 39017 ft 419 kts 197°
2026-05-05 18:25 37.67271 11.31785 39018 ft 419 kts 197°
2026-05-05 18:25 37.61595 11.30104 39006 ft 419 kts 197°
2026-05-05 18:26 37.55912 11.28422 39000 ft 420 kts 197°
2026-05-05 18:26 37.50228 11.26728 39003 ft 420 kts 197°
2026-05-05 18:27 37.44540 11.25038 39006 ft 420 kts 197°
2026-05-05 18:27 37.38869 11.23360 38992 ft 421 kts 197°
2026-05-05 18:28 37.30309 11.20836 38999 ft 421 kts 197°
2026-05-05 18:28 37.24596 11.19153 39004 ft 422 kts 197°
2026-05-05 18:29 37.18876 11.17474 39006 ft 422 kts 197°
2026-05-05 18:29 37.13164 11.15797 39002 ft 422 kts 197°
2026-05-05 18:30 37.07471 11.14129 38997 ft 422 kts 197°
2026-05-05 18:30 37.01750 11.12449 39008 ft 422 kts 197°
2026-05-05 18:31 36.96023 11.10773 39015 ft 422 kts 197°
2026-05-05 18:31 36.90301 11.09111 39004 ft 422 kts 198°
2026-05-05 18:32 36.84589 11.07415 39013 ft 422 kts 198°
2026-05-05 18:32 36.78884 11.05667 39018 ft 421 kts 198°
2026-05-05 18:33 36.73226 11.03918 39018 ft 421 kts 198°
2026-05-05 18:33 36.67531 11.02175 39011 ft 421 kts 198°
2026-05-05 18:34 36.61831 11.00456 39011 ft 421 kts 198°
2026-05-05 18:34 36.56120 10.98751 39014 ft 421 kts 198°
2026-05-05 18:35 36.50417 10.97046 39015 ft 421 kts 198°
2026-05-05 18:35 36.44717 10.95337 39000 ft 421 kts 199°
2026-05-05 18:36 36.39054 10.93642 39008 ft 421 kts 199°
2026-05-05 18:36 36.33353 10.91936 39011 ft 421 kts 199°
2026-05-05 18:37 36.27654 10.90235 39008 ft 421 kts 199°
2026-05-05 18:37 36.21948 10.88539 38994 ft 421 kts 199°
2026-05-05 18:38 36.16253 10.86846 39002 ft 421 kts 199°
2026-05-05 18:38 36.10548 10.85157 39004 ft 421 kts 199°
2026-05-05 18:39 36.04873 10.83477 39007 ft 421 kts 199°
2026-05-05 18:39 35.99155 10.81792 38993 ft 421 kts 199°
2026-05-05 18:40 35.93462 10.80109 39000 ft 420 kts 199°
2026-05-05 18:40 35.90592 10.79260 38836 ft 429 kts 199°
2026-05-05 18:40 35.87662 10.78390 38593 ft 436 kts 199°
2026-05-05 18:41 35.84685 10.77507 37597 ft 445 kts 199°
2026-05-05 18:41 35.81675 10.76622 37045 ft 441 kts 199°
2026-05-05 18:41 35.78724 10.75765 36719 ft 432 kts 198°
2026-05-05 18:41 35.75793 10.74979 35939 ft 436 kts 193°
2026-05-05 18:42 35.72765 10.74679 35457 ft 436 kts 188°
2026-05-05 18:42 35.69750 10.74515 34922 ft 432 kts 188°
2026-05-05 18:42 35.66758 10.74341 34390 ft 429 kts 188°
2026-05-05 18:42 35.63788 10.74164 33842 ft 426 kts 188°
2026-05-05 18:43 35.60840 10.73987 33298 ft 422 kts 188°
2026-05-05 18:43 35.57922 10.73813 32793 ft 417 kts 188°
2026-05-05 18:43 35.55037 10.73645 32287 ft 414 kts 187°
2026-05-05 18:43 35.52175 10.73483 31806 ft 410 kts 187°
2026-05-05 18:44 35.49338 10.73323 31314 ft 406 kts 187°
2026-05-05 18:44 35.46529 10.73163 30842 ft 403 kts 187°
2026-05-05 18:44 35.43742 10.73009 30383 ft 399 kts 187°
2026-05-05 18:44 35.41909 10.72907 30084 ft 397 kts 187°
2026-05-05 18:45 35.39166 10.72752 29614 ft 392 kts 187°
2026-05-05 18:45 35.36462 10.72597 29193 ft 386 kts 187°
2026-05-05 18:45 35.33798 10.72444 28793 ft 380 kts 187°
2026-05-05 18:45 35.31176 10.72294 28395 ft 375 kts 187°
2026-05-05 18:46 35.28587 10.72147 28006 ft 370 kts 187°
2026-05-05 18:46 35.26031 10.72001 27607 ft 365 kts 187°
2026-05-05 18:46 35.23514 10.71855 27228 ft 360 kts 188°
2026-05-05 18:46 35.21021 10.71708 26832 ft 357 kts 187°
2026-05-05 18:47 35.18552 10.71567 26440 ft 354 kts 187°
2026-05-05 18:47 35.16106 10.71426 26043 ft 350 kts 187°
2026-05-05 18:47 35.13678 10.71286 25639 ft 348 kts 187°
2026-05-05 18:47 35.11271 10.71146 25239 ft 345 kts 187°
2026-05-05 18:48 35.08876 10.71006 24828 ft 344 kts 187°
2026-05-05 18:48 35.06493 10.70869 24416 ft 342 kts 187°
2026-05-05 18:48 35.04122 10.70733 24004 ft 340 kts 187°
2026-05-05 18:48 35.01761 10.70598 23585 ft 339 kts 187°
2026-05-05 18:49 34.99409 10.70467 23132 ft 337 kts 187°
2026-05-05 18:49 34.97076 10.70338 22728 ft 334 kts 187°
2026-05-05 18:49 34.94769 10.70208 22330 ft 331 kts 187°
2026-05-05 18:49 34.92479 10.70077 21944 ft 328 kts 187°
2026-05-05 18:50 34.90207 10.69945 21569 ft 326 kts 187°
2026-05-05 18:50 34.87950 10.69812 21184 ft 324 kts 187°
2026-05-05 18:50 34.85706 10.69682 20811 ft 322 kts 187°
2026-05-05 18:50 34.83476 10.69554 20439 ft 320 kts 187°
2026-05-05 18:51 34.81256 10.69426 20070 ft 319 kts 187°
2026-05-05 18:51 34.79049 10.69301 19703 ft 317 kts 187°
2026-05-05 18:51 34.76846 10.69178 19328 ft 316 kts 187°
2026-05-05 18:51 34.74668 10.68990 19086 ft 307 kts 195°
2026-05-05 18:52 34.72787 10.67995 19023 ft 292 kts 217°
2026-05-05 18:52 34.71175 10.66512 18963 ft 290 kts 223°
2026-05-05 18:52 34.69629 10.64934 18915 ft 290 kts 223°
2026-05-05 18:52 34.68085 10.63356 18849 ft 290 kts 223°
2026-05-05 18:53 34.66526 10.61805 18791 ft 290 kts 222°
2026-05-05 18:53 34.64943 10.60286 18715 ft 290 kts 221°
2026-05-05 18:53 34.63337 10.58803 18667 ft 290 kts 220°
2026-05-05 18:53 34.61708 10.57359 18612 ft 290 kts 219°
2026-05-05 18:54 34.60059 10.55956 18557 ft 289 kts 218°
2026-05-05 18:54 34.58392 10.54597 18494 ft 289 kts 217°
2026-05-05 18:54 34.56694 10.53292 18354 ft 291 kts 212°
2026-05-05 18:54 34.54748 10.52527 17545 ft 302 kts 188°
2026-05-05 18:55 34.52620 10.52545 16701 ft 309 kts 182°
2026-05-05 18:55 34.50458 10.52647 15868 ft 313 kts 181°
2026-05-05 18:55 34.48273 10.52759 15154 ft 314 kts 181°
2026-05-05 18:55 34.46116 10.52873 14740 ft 309 kts 180°
2026-05-05 18:56 34.43964 10.52981 14356 ft 310 kts 180°
2026-05-05 18:56 34.41808 10.53083 13983 ft 310 kts 181°
2026-05-05 18:56 34.39644 10.53181 13520 ft 313 kts 181°
2026-05-05 18:56 34.37468 10.53279 13127 ft 313 kts 180°
2026-05-05 18:57 34.35302 10.53378 12754 ft 311 kts 181°
2026-05-05 18:57 34.33145 10.53479 12406 ft 309 kts 181°
2026-05-05 18:57 34.31001 10.53581 12037 ft 307 kts 180°
2026-05-05 18:57 34.28867 10.53682 11646 ft 307 kts 181°
2026-05-05 18:58 34.26736 10.53777 11249 ft 306 kts 180°
2026-05-05 18:58 34.24610 10.53869 10853 ft 306 kts 180°
2026-05-05 18:58 34.22486 10.53961 10451 ft 305 kts 180°
2026-05-05 18:58 34.20366 10.54053 10043 ft 305 kts 181°
2026-05-05 18:59 34.18255 10.54147 9765 ft 299 kts 180°
2026-05-05 18:59 34.16204 10.54245 9364 ft 292 kts 181°
2026-05-05 18:59 34.14178 10.54340 8826 ft 289 kts 181°
2026-05-05 18:59 34.12186 10.54432 8431 ft 285 kts 181°
2026-05-05 19:00 34.10214 10.54521 8038 ft 283 kts 180°
2026-05-05 19:00 34.08253 10.54606 7607 ft 282 kts 180°
2026-05-05 19:00 34.06295 10.54688 7188 ft 281 kts 180°
2026-05-05 19:00 34.04342 10.54772 6752 ft 281 kts 179°
2026-05-05 19:01 34.02393 10.54859 6313 ft 280 kts 179°
2026-05-05 19:01 34.00448 10.54948 5852 ft 280 kts 178°
2026-05-05 19:01 33.98507 10.55036 5401 ft 278 kts 178°
2026-05-05 19:01 33.96578 10.55123 4946 ft 277 kts 178°
2026-05-05 19:02 33.94658 10.55208 4484 ft 276 kts 177°
2026-05-05 19:02 33.92784 10.55291 4034 ft 262 kts 176°
2026-05-05 19:02 33.91007 10.55372 3597 ft 249 kts 175°
2026-05-05 19:02 33.89428 10.55933 3221 ft 231 kts 140°
2026-05-05 19:03 33.88540 10.57400 3084 ft 211 kts 115°
2026-05-05 19:03 33.87921 10.58978 2685 ft 207 kts 118°
2026-05-05 19:03 33.87329 10.60520 2418 ft 198 kts 106°
2026-05-05 19:03 33.87144 10.62104 2232 ft 187 kts 90°
2026-05-05 19:04 33.87182 10.63596 1986 ft 171 kts 89°
2026-05-05 19:04 33.87220 10.64993 1786 ft 165 kts 89°
2026-05-05 19:04 33.87255 10.66316 1581 ft 147 kts 90°
2026-05-05 19:04 33.87285 10.67471 1377 ft 132 kts 88°
2026-05-05 19:05 33.87312 10.68540 1213 ft 125 kts 89°
2026-05-05 19:05 33.87338 10.69577 1053 ft 123 kts 88°
2026-05-05 19:05 33.87364 10.70596 901 ft 121 kts 89°
2026-05-05 19:05 33.87390 10.71607 752 ft 120 kts 87°
2026-05-05 19:06 33.87416 10.72619 602 ft 122 kts 86°
2026-05-05 19:06 33.87443 10.73635 430 ft 122 kts 86°
2026-05-05 19:06 33.87468 10.74647 273 ft 120 kts 89°
2026-05-05 19:06 33.87492 10.75651 116 ft 119 kts 87°
2026-05-05 19:07 33.87520 10.76638 30 ft 114 kts 86°
2026-05-05 19:07 33.87541 10.77558 28 ft 105 kts 88°
2026-05-05 19:07 33.87559 10.78254 20 ft 48 kts 88°
2026-05-05 19:07 33.87563 10.78547 20 ft 18 kts 102°
2026-05-05 19:08 33.87461 10.78600 21 ft 18 kts 181°
2026-05-05 19:08 33.87399 10.78508 24 ft 14 kts 267°
2026-05-05 19:08 33.87396 10.78412 27 ft 10 kts 268°
2026-05-05 19:08 33.87394 10.78330 27 ft 10 kts 268°
2026-05-05 19:09 33.87392 10.78253 27 ft 9 kts 272°
2026-05-05 19:09 33.87398 10.78182 27 ft 8 kts 270°
2026-05-05 19:09 33.87397 10.78115 26 ft 8 kts 268°
2026-05-05 19:09 33.87395 10.78054 26 ft 7 kts 268°
2026-05-05 19:10 33.87393 10.77988 27 ft 10 kts 268°
2026-05-05 19:10 33.87391 10.77892 27 ft 13 kts 269°
2026-05-05 19:10 33.87388 10.77776 27 ft 15 kts 268°
2026-05-05 19:10 33.87385 10.77651 26 ft 15 kts 268°
2026-05-05 19:11 33.87382 10.77530 26 ft 14 kts 268°
2026-05-05 19:11 33.87379 10.77418 27 ft 13 kts 268°
2026-05-05 19:11 33.87346 10.77358 27 ft 8 kts 165°
2026-05-05 19:11 33.87305 10.77401 27 ft 9 kts 135°
2026-05-05 19:12 33.87279 10.77433 27 ft 0 kts 134°
2026-05-05 19:12 33.87278 10.77433 27 ft 0 kts 134°